Regional Weather Roundup
Issued by NWS

Home | Current Version | Previous Version | Graphics & Text | Print | Product List | Glossary On
Versions: 1 2 3 4 5 6 7 8 9 10 11 12 13 14 15 16 17 18 19 20 21 22 23 24 25 26 27 28 29 30 31 32 33 34 35 36 37 38 39 40 41 42 43 44 45 46 47 48 49 50
000
ASUS43 KLOT 291008
RWRIL

ILLINOIS REGIONAL WEATHER ROUNDUP
NATIONAL WEATHER SERVICE CHICAGO/ROMEOVILLE IL
500 AM CDT WED JUL 29 2015

NOTE: "FAIR" INDICATES FEW OR NO CLOUDS BELOW 12,000 FEET WITH NO
SIGNIFICANT WEATHER AND/OR OBSTRUCTIONS TO VISIBILITY.

* THESE STATIONS ARE NOT UNDER NWS QUALITY CONTROL. THEY ALSO MAY NOT
  REPORT WEATHER SUCH AS PRECIPITATION OR FOG.

ILZ001-002-007-009-015-016-024-291100-
NORTHWEST ILLINOIS

CITY           SKY/WX    TMP DP  RH WIND       PRES   REMARKS
MOLINE         CLOUDY    74  71  91 W9        29.98R
STERLING*      CLOUDY    73  72  94 W6        29.96R
SAVANNA*       CLOUDY    75  71  86 NW7       29.96S
$$

ILZ003-004-008-010-011-017-018-291100-
NORTH CENTRAL ILLINOIS

CITY           SKY/WX    TMP DP  RH WIND       PRES   REMARKS
ROCKFORD       CLOUDY    74  71  91 S5        29.96R
FREEPORT*      CLOUDY    73  72  96 W5        29.98R
ROCHELLE*      CLOUDY    71  71  98 SW3       29.96R FOG
DE KALB*       CLOUDY    73  71  93 SW6       29.96R
PERU*          CLOUDY    73  71  96 SW3       29.97R
$$

ILZ005-006-012>014-019>023-291100-
NORTHEAST ILLINOIS

CITY           SKY/WX    TMP DP  RH WIND       PRES   REMARKS
CHICAGO-OHARE  CLOUDY    76  70  82 SW6       29.92F
CHICAGO-MIDWAY CLOUDY    77  71  82 SW9       29.92S
AURORA         CLOUDY    73  70  90 SW3       29.95S
LANSING*       CLOUDY    74  70  87 W8        29.94S
JOLIET*        CLOUDY    74  73  96 CALM      29.93F
WAUKEGAN       CLOUDY    76  70  82 VRB5      29.92S
DUPAGE AIRPORT CLOUDY    73  70  90 SW6       29.94S
KANKAKEE*      LGT RAIN  73  72  98 S7        29.94F
WHEELING       CLOUDY    76  70  82 SW7       29.94S
MORRIS*        CLOUDY    73  71  94 SW3       29.91S
ROMEOVILLE*    CLOUDY    73  72  97 CALM      29.94F FOG
NORTHERLY ISL    N/A     76  70  82 W9          N/A
$$

LMZ740>746-291100-
SOUTHERN LAKE MICHIGAN

STATION/POSITION SKY/WX   TEMP    WIND        PRES    VSBY  WAVE
                          AIR SEA DIR/SP/G                  HT/PER
                          (F)     (DEG/KT/KT) (MB)    (MI)  (FT/S)
HARRISON CRIB              77     200/ 12/ 13   N/A
BURNHAM HARBOR             76     220/  6/ 10   N/A
CALUMET HARBOR             76     200/  5/  8   N/A
BURNS HARBOR               75     230/  9/ 12 1014.2R
MICHIGAN CITY              76     220/ 10/ 11   N/A
MICHIGAN CITY 6N           75 74  230/  8/ 10   N/A           1
ST. JOSEPH                 76 75  250/  8/  8   N/A           1
$$

ILZ025>027-034>036-040-047-049-050-058-095>099-291100-
WEST-CENTRAL ILLINOIS

CITY           SKY/WX    TMP DP  RH WIND       PRES   REMARKS
QUINCY         CLOUDY    73  69  87 NW9       30.01R
GALESBURG*     CLOUDY    74  71  93 NW6       29.99S
MACOMB*        CLOUDY    73  71  92 NW8       30.01S
JACKSONVILLE*  CLOUDY    80  77  93 W5        29.98R FOG     HX  85
PITTSFIELD*    CLOUDY    77  72  84 NW7       30.01R
$$

ILZ028>032-037-038-041>044-048-051>054-059>061-291100-
CENTRAL ILLINOIS

CITY           SKY/WX    TMP DP  RH WIND       PRES   REMARKS
PONTIAC        CLOUDY    73  73 100 S3        29.95S
BLOOMINGTON    CLOUDY    73  73 100 S3        29.97S
DECATUR        MOCLDY    75  72  90 NE5       29.98R
PEORIA         CLOUDY    76  73  91 NW3       29.97R
LACON*         CLOUDY    71  70  96 CALM      29.96R
LINCOLN*       MOCLDY    75  72  90 S3        29.96R
SPRINGFIELD    MOCLDY    79  75  87 W6        29.96R HX  83
TAYLORVILLE    MOCLDY    73  73 100 S5        29.97R FOG
$$

ILZ033-039-045-046-055>057-062-063-291100-
EAST-CENTRAL ILLINOIS

CITY           SKY/WX    TMP DP  RH WIND       PRES   REMARKS
CHAMPAIGN      CLOUDY    73  72  96 SE6       29.97F
DANVILLE*      RAIN      72  70  96 CALM      29.95F
RANTOUL*       RAIN      74  73  95 CALM      29.96F
MATTOON        MOCLDY    74  71  91 S5        29.96S
PARIS*         TSTM      74  72  93 NW12G23   29.99R
$$

ILZ079-100>102-291100-
SOUTHWEST ILLINOIS

CITY           SKY/WX    TMP DP  RH WIND       PRES   REMARKS
ALTON          PTCLDY    74  74  98 CALM      29.98R FOG
BELLEVILLE     CLEAR     78  78 100 W5        29.97R HX  81
CAHOKIA*       CLEAR     79  76  90 CALM      29.98R HX  83
SPARTA*        CLEAR     78  76  95 CALM      30.00R HX  80
$$

ILZ064>066-069>071-074>076-080>082-084>086-088>090-092>094-291100-
SOUTH-CENTRAL ILLINOIS

CITY           SKY/WX    TMP DP  RH WIND       PRES   REMARKS
CARBONDALE     CLEAR     76  73  91 S3        29.99R
CAIRO*         CLEAR     76  74  92 CALM      29.98R
EFFINGHAM*     PTCLDY    75  72  92 CALM      29.98S FOG
MARION         CLEAR     77  73  88 CALM      30.00R
MT. VERNON     MOCLDY    75  70  83 SW5       29.99R
CENTRALIA*     CLEAR     75  73  92 SW3       29.98S FOG
SALEM*         CLEAR     79  75  90 CALM      29.98R FOG     HX  82
METROPOLIS*    CLEAR     74  74 100 CALM      29.99R
$$

ILZ067-068-072-073-078-083-087-091-291100-
SOUTHEAST ILLINOIS

CITY           SKY/WX    TMP DP  RH WIND       PRES   REMARKS
LAWRENCEVILLE  MOCLDY    75  73  93 S3        29.97R FOG
FLORA*         MOCLDY    74  73  97 CALM      29.97S
FAIRFIELD*     TSTM      75  75  98 NE6       29.99R
HARRISBURG*    CLEAR     74  74  99 CALM      29.99R
ROBINSON*      MOCLDY    74  73  97 CALM      29.97S FOG
CARMI*         PTCLDY    73  68  86 MISG      29.97S HAZE
$$

ABBREVIATIONS USED IN REMARKS
   TC - TEMPERATURE IN CELSIUS
  WCI - WIND CHILL INDEX
   HX - HEAT INDEX
  VSB - VISIBILITY
$$



USA.gov is the U.S. government's official web portal to all federal, state and local government web resources and services.